Weather History for Orange City, IA

Change the Weather History Date:

Tuesday, June 10, 2014

  Actual Average Record
Temperature  
Mean Temperature 68 °F -  
Max Temperature 80 °F 76 °F 92 °F (1953)
Min Temperature 57 °F 57 °F 50 °F (1950)
Cooling Degree Days 4    
Growing Degree Days 18 (Base 50)    
Moisture  
Dew Point 53 °F    
Average Humidity 58    
Maximum Humidity 88    
Minimum Humidity 34    
Precipitation  
Precipitation 0.00 in - - ()
Sea Level Pressure  
Sea Level Pressure 29.90 in    
Wind  
Wind Speed 4 mph (ESE)    
Max Wind Speed 8 mph    
Max Gust Speed -    
Visibility 10 miles    
Events      
Averages and records for this station are not official NWS values.
T = Trace of Precipitation, MM = Missing Value Source: NWS Daily Summary

Daily Weather History Graph

Daily Weather History Graph

Search for Another Location

Airport:

Trip Planner

Search our weather history database for the weather conditions in past years. The results will help you decide how hot, cold, wet, or windy it might be!

Date:

Astronomy

Jun. 10, 2014 Rise Set
Actual Time 5:44 AM CDT 9:02 PM CDT
Civil Twilight 5:09 AM CDT 9:37 PM CDT
Nautical Twilight 4:24 AM CDT 10:23 PM CDT
Astronomical Twilight 3:28 AM CDT 11:19 PM CDT
Moon 6:25 PM CDT (6/10) 3:55 AM CDT (6/10)
Length of Visible Light 16h 28m
Length of Day
15h 17m
Waxing Gibbous, 92% of the Moon is Illuminated
Jun 10
Waxing Gibbous
Jun 12
Full
Jun 19
Last Quarter
Jun 27
New
Jul 5
First Quarter

Hourly Weather History & Observations

Time (CDT) Temp. Dew Point Humidity Pressure Visibility Wind Dir Wind Speed Gust Speed Precip Events Conditions
12:15 AM 62.6 °F 55.4 °F 77% 29.96 in 10.0 mi ENE 3.5 mph - N/A   Overcast
12:35 AM 62.6 °F 55.4 °F 77% 29.96 in 10.0 mi ENE 4.6 mph - N/A   Overcast
12:55 AM 62.6 °F 55.4 °F 77% 29.96 in 10.0 mi NE 4.6 mph - N/A   Mostly Cloudy
1:15 AM 62.6 °F 55.4 °F 77% 29.95 in 10.0 mi NE 5.8 mph - N/A   Scattered Clouds
1:35 AM 62.6 °F 55.4 °F 77% 29.95 in 10.0 mi NE 3.5 mph - N/A   Clear
1:55 AM 62.6 °F 53.6 °F 72% 29.94 in 10.0 mi NE 3.5 mph - N/A   Clear
2:15 AM 62.6 °F 53.6 °F 72% 29.94 in 10.0 mi ENE 4.6 mph - N/A   Clear
2:35 AM 60.8 °F 55.4 °F 82% 29.93 in 10.0 mi ENE 3.5 mph - N/A   Clear
2:55 AM 60.8 °F 53.6 °F 77% 29.93 in 10.0 mi ENE 5.8 mph - N/A   Clear
3:15 AM 60.8 °F 53.6 °F 77% 29.93 in 10.0 mi ENE 6.9 mph - N/A   Clear
3:35 AM 60.8 °F 53.6 °F 77% 29.93 in 10.0 mi ENE 6.9 mph - N/A   Mostly Cloudy
4:15 AM 59.0 °F 53.6 °F 82% 29.93 in 10.0 mi ENE 4.6 mph - N/A   Overcast
4:35 AM 59.0 °F 53.6 °F 82% 29.93 in 10.0 mi East 4.6 mph - N/A   Scattered Clouds
4:55 AM 59.0 °F 53.6 °F 82% 29.92 in 10.0 mi East 5.8 mph - N/A   Scattered Clouds
5:15 AM 57.2 °F 53.6 °F 88% 29.92 in 10.0 mi East 3.5 mph - N/A   Scattered Clouds
5:35 AM 57.2 °F 51.8 °F 82% 29.92 in 10.0 mi East 3.5 mph - N/A   Clear
5:55 AM 57.2 °F 51.8 °F 82% 29.92 in 10.0 mi East 3.5 mph - N/A   Clear
6:15 AM 57.2 °F 51.8 °F 82% 29.93 in 10.0 mi ENE 4.6 mph - N/A   Clear
6:35 AM 60.8 °F 53.6 °F 77% 29.93 in 10.0 mi Calm Calm - N/A   Clear
6:55 AM 60.8 °F 51.8 °F 72% 29.93 in 10.0 mi Calm Calm - N/A   Clear
7:15 AM 60.8 °F 51.8 °F 72% 29.93 in 10.0 mi Calm Calm - N/A   Clear
7:35 AM 60.8 °F 51.8 °F 72% 29.94 in 10.0 mi Calm Calm - N/A   Clear
7:55 AM 64.4 °F 53.6 °F 68% 29.94 in 10.0 mi Calm Calm - N/A   Clear
8:15 AM 64.4 °F 53.6 °F 68% 29.94 in 10.0 mi East 3.5 mph - N/A   Clear
8:35 AM 66.2 °F 53.6 °F 64% 29.94 in 10.0 mi East 4.6 mph - N/A   Clear
8:55 AM 66.2 °F 53.6 °F 64% 29.94 in 10.0 mi East 3.5 mph - N/A   Clear
9:15 AM 68.0 °F 51.8 °F 56% 29.94 in 10.0 mi ENE 3.5 mph - N/A   Clear
9:35 AM 69.8 °F 51.8 °F 53% 29.93 in 10.0 mi Calm Calm - N/A   Clear
9:55 AM 69.8 °F 48.2 °F 46% 29.93 in 10.0 mi East 3.5 mph - N/A   Clear
10:15 AM 71.6 °F 48.2 °F 43% 29.93 in 10.0 mi Calm Calm - N/A   Clear
10:35 AM 71.6 °F 48.2 °F 43% 29.93 in 10.0 mi Calm Calm - N/A   Clear
10:55 AM 73.4 °F 46.4 °F 38% 29.93 in 10.0 mi East 4.6 mph - N/A   Clear
11:15 AM 73.4 °F 48.2 °F 41% 29.93 in 10.0 mi ENE 4.6 mph - N/A   Clear
11:35 AM 73.4 °F 50.0 °F 44% 29.92 in 10.0 mi Calm Calm - N/A   Clear
11:55 AM 73.4 °F 48.2 °F 41% 29.92 in 10.0 mi NE 3.5 mph - N/A   Clear
12:15 PM 75.2 °F 50.0 °F 41% 29.91 in 10.0 mi East 3.5 mph - N/A   Clear
12:55 PM 75.2 °F 48.2 °F 38% 29.90 in 10.0 mi ESE 4.6 mph - N/A   Clear
1:15 PM 77.0 °F 48.2 °F 36% 29.90 in 10.0 mi Calm Calm - N/A   Clear
1:35 PM 77.0 °F 50.0 °F 39% 29.90 in 10.0 mi East 3.5 mph - N/A   Scattered Clouds
2:15 PM 77.0 °F 51.8 °F 41% 29.89 in 10.0 mi South 6.9 mph - N/A   Scattered Clouds
2:35 PM 77.0 °F 51.8 °F 41% 29.89 in 10.0 mi Calm Calm - N/A   Scattered Clouds
2:55 PM 78.8 °F 53.6 °F 42% 29.88 in 10.0 mi Calm Calm - N/A   Scattered Clouds
3:55 PM 78.8 °F 51.8 °F 39% 29.87 in 10.0 mi SSW 4.6 mph - N/A   Scattered Clouds
4:15 PM 78.8 °F 51.8 °F 39% 29.87 in 10.0 mi SW 3.5 mph - N/A   Scattered Clouds
4:55 PM 80.6 °F 50.0 °F 34% 29.86 in 10.0 mi South 3.5 mph - N/A   Clear
5:15 PM 78.8 °F 51.8 °F 39% 29.86 in 10.0 mi WSW 8.1 mph - N/A   Clear
5:35 PM 78.8 °F 51.8 °F 39% 29.85 in 10.0 mi Calm Calm - N/A   Clear
5:55 PM 80.6 °F 51.8 °F 37% 29.85 in 10.0 mi SW 5.8 mph - N/A   Clear
6:15 PM 80.6 °F 51.8 °F 37% 29.84 in 10.0 mi SW 4.6 mph - N/A   Scattered Clouds
6:55 PM 78.8 °F 53.6 °F 42% 29.84 in 10.0 mi Calm Calm - N/A   Scattered Clouds
7:15 PM 78.8 °F 53.6 °F 42% 29.84 in 10.0 mi ESE 4.6 mph - N/A   Overcast
7:35 PM 78.8 °F 55.4 °F 44% 29.84 in 10.0 mi East 4.6 mph - N/A   Overcast
7:55 PM 77.0 °F 57.2 °F 50% 29.84 in 10.0 mi SE 5.8 mph - N/A   Mostly Cloudy
8:15 PM 75.2 °F 57.2 °F 53% 29.84 in 10.0 mi SE 3.5 mph - N/A   Mostly Cloudy
8:35 PM 75.2 °F 57.2 °F 53% 29.84 in 10.0 mi SSE 4.6 mph - N/A   Scattered Clouds
8:55 PM 75.2 °F 57.2 °F 53% 29.84 in 10.0 mi SSE 4.6 mph - N/A   Scattered Clouds
9:15 PM 75.2 °F 55.4 °F 50% 29.83 in 10.0 mi South 5.8 mph - N/A   Mostly Cloudy
9:35 PM 73.4 °F 55.4 °F 53% 29.84 in 10.0 mi SSE 3.5 mph - N/A   Scattered Clouds
9:55 PM 73.4 °F 57.2 °F 57% 29.84 in 10.0 mi Calm Calm - N/A   Scattered Clouds
10:15 PM 73.4 °F 55.4 °F 53% 29.84 in 10.0 mi SE 3.5 mph - N/A   Scattered Clouds
10:35 PM 73.4 °F 55.4 °F 53% 29.84 in 10.0 mi SSE 8.1 mph - N/A   Scattered Clouds
10:55 PM 71.6 °F 57.2 °F 60% 29.85 in 10.0 mi SSE 5.8 mph - N/A   Mostly Cloudy
11:15 PM 69.8 °F 57.2 °F 64% 29.84 in 10.0 mi SSE 6.9 mph - N/A   Scattered Clouds
11:35 PM 69.8 °F 57.2 °F 64% 29.84 in 10.0 mi South 8.1 mph - N/A   Clear
11:55 PM 66.2 °F 57.2 °F 73% 29.85 in 10.0 mi South 8.1 mph - N/A   Scattered Clouds